Weather History for KFLL - May, 2015

Change the Weather History Date:

Saturday, May 30, 2015

  Actual Average Record
Temperature  
Mean Temperature 82 °F 82 °F  
Max Temperature 86 °F 88 °F 95 °F (1924)
Min Temperature 77 °F 76 °F 60 °F (1937)
Degree Days  
Heating Degree Days 0 0  
Month to date heating degree days 0 0  
Since 1 July heating degree days 97 112  
Cooling Degree Days 17 17  
Month to date cooling degree days 458 454  
Year to date cooling degree days 1519 1401  
Growing Degree Days 31 (Base 50)    
Moisture  
Dew Point 71 °F    
Average Humidity 70    
Maximum Humidity 79    
Minimum Humidity 61    
Precipitation  
Precipitation 0.00 in 0.23 in 2.79 in (1994)
Month to date precipitation 1.97 4.43  
Year to date precipitation 14.05 17.27  
Snow  
Snow 0.00 in - - ()
Month to date snowfall 0.0  
Since 1 July snowfall 0.0  
Snow Depth 0.00 in    
Sea Level Pressure  
Sea Level Pressure 30.03 in    
Wind  
Wind Speed 11 mph (East)    
Max Wind Speed 17 mph    
Max Gust Speed 24 mph    
Visibility 10 miles    
Events      
T = Trace of Precipitation, MM = Missing Value Source: NWS Daily Summary

Daily Weather History Graph

Daily Weather History Graph

Search for Another Location

Airport or City:

Trip Planner

Search our weather history database for the weather conditions in past years. The results will help you decide how hot, cold, wet, or windy it might be!

Date:

Astronomy

May. 30, 2015 Rise Set
Actual Time 6:29 AM EDT 8:07 PM EDT
Civil Twilight 6:03 AM EDT 8:33 PM EDT
Nautical Twilight 5:32 AM EDT 9:03 PM EDT
Astronomical Twilight 5:00 AM EDT 9:36 PM EDT
Moon 5:29 PM EDT (5/30) 4:22 AM EDT (5/30)
Length of Visible Light 14h 29m
Length of Day
13h 38m
Waxing Gibbous, 91% of the Moon is Illuminated
May 30
Waxing Gibbous
Jun 2
Full
Jun 9
Last Quarter
Jun 16
New
Jun 24
First Quarter

Hourly Weather History & Observations

Time (EDT) Temp. Heat Index Dew Point Humidity Pressure Visibility Wind Dir Wind Speed Gust Speed Precip Events Conditions
12:53 AM 79.0 °F - 70.0 °F 74% 30.05 in 10.0 mi East 10.4 mph - N/A   Mostly Cloudy
1:53 AM 79.0 °F - 70.0 °F 74% 30.03 in 10.0 mi East 11.5 mph - N/A   Scattered Clouds
2:53 AM 78.1 °F - 70.0 °F 76% 30.02 in 10.0 mi East 9.2 mph - N/A   Mostly Cloudy
3:53 AM 78.1 °F - 69.1 °F 74% 30.01 in 10.0 mi East 9.2 mph - N/A   Partly Cloudy
4:53 AM 78.1 °F - 70.0 °F 76% 30.01 in 10.0 mi East 6.9 mph - N/A   Partly Cloudy
5:53 AM 78.1 °F - 71.1 °F 79% 30.01 in 10.0 mi East 6.9 mph - N/A   Scattered Clouds
6:53 AM 78.1 °F - 70.0 °F 76% 30.03 in 10.0 mi East 5.8 mph - N/A   Scattered Clouds
7:53 AM 80.1 °F 82.9 °F 69.1 °F 69% 30.04 in 10.0 mi East 8.1 mph - N/A   Scattered Clouds
8:53 AM 82.0 °F 85.9 °F 70.0 °F 67% 30.05 in 10.0 mi East 8.1 mph - N/A   Scattered Clouds
9:53 AM 82.9 °F 87.5 °F 71.1 °F 67% 30.05 in 10.0 mi NE 8.1 mph - N/A   Scattered Clouds
10:53 AM 82.0 °F 86.3 °F 71.1 °F 69% 30.06 in 10.0 mi East 9.2 mph - N/A   Mostly Cloudy
11:53 AM 82.9 °F 87.5 °F 71.1 °F 67% 30.06 in 10.0 mi East 6.9 mph 17.3 mph N/A   Mostly Cloudy
12:53 PM 84.9 °F 90.1 °F 71.1 °F 63% 30.05 in 10.0 mi ESE 15.0 mph - N/A   Mostly Cloudy
1:53 PM 84.0 °F 89.0 °F 71.1 °F 65% 30.04 in 10.0 mi East 11.5 mph 21.9 mph N/A   Mostly Cloudy
2:53 PM 84.9 °F 90.1 °F 71.1 °F 63% 30.03 in 10.0 mi ESE 12.7 mph - N/A   Scattered Clouds
3:53 PM 84.9 °F 89.4 °F 70.0 °F 61% 30.01 in 10.0 mi East 12.7 mph - N/A   Scattered Clouds
4:53 PM 84.0 °F 89.0 °F 71.1 °F 65% 30.00 in 10.0 mi East 12.7 mph - N/A   Scattered Clouds
5:53 PM 82.0 °F 86.7 °F 72.0 °F 71% 30.00 in 10.0 mi East 13.8 mph - N/A   Mostly Cloudy
6:53 PM 82.9 °F 87.5 °F 71.1 °F 67% 29.99 in 10.0 mi ENE 13.8 mph - N/A   Mostly Cloudy
7:53 PM 81.0 °F 84.9 °F 71.1 °F 72% 30.01 in 10.0 mi East 10.4 mph - N/A   Mostly Cloudy
8:53 PM 80.1 °F 82.9 °F 69.1 °F 69% 30.01 in 10.0 mi East 12.7 mph - N/A   Scattered Clouds
9:53 PM 80.1 °F 83.6 °F 71.1 °F 74% 30.02 in 10.0 mi East 9.2 mph - N/A   Mostly Cloudy
10:53 PM 80.1 °F 83.6 °F 71.1 °F 74% 30.03 in 10.0 mi East 13.8 mph - N/A   Mostly Cloudy
11:53 PM 79.0 °F - 70.0 °F 74% 30.02 in 10.0 mi East 13.8 mph - N/A   Partly Cloudy